| time (UTC) | temp C | wind direction | speed KPH | gust KPH | rain 1hr cm | rain 24hr cm | rain mn cm | humidity % | barometer mb |
| 20260503210004 | 15 | 240 | 3.2 | 6.4 | 0.00 | 0.00 | 0.00 | 76 | 1019.9 |
| 20260503204505 | 15 | 240 | 3.2 | 6.4 | 0.00 | 0.00 | 0.00 | 76 | 1019.9 |
| 20260503203014 | 15 | 240 | 3.2 | 4.8 | 0.00 | 0.00 | 0.00 | 76 | 1020.0 |
| 20260503201510 | 15 | 240 | 0.0 | 1.6 | 0.00 | 0.00 | 0.00 | 75 | 1020.0 |
| 20260503200010 | 15 | 241 | 0.0 | 1.6 | 0.00 | 0.00 | 0.00 | 75 | 1019.8 |
| 20260503194504 | 15 | 241 | 0.0 | 0.0 | 0.00 | 0.00 | 0.00 | 74 | 1019.6 |
| 20260503193027 | 16 | 241 | 0.0 | 0.0 | 0.00 | 0.00 | 0.00 | 74 | 1019.4 |
| 20260503191515 | 16 | 250 | 0.0 | 0.0 | 0.00 | 0.00 | 0.00 | 74 | 1019.4 |
| 20260503190025 | 16 | 269 | 0.0 | 1.6 | 0.00 | 0.00 | 0.00 | 74 | 1019.4 |
| 20260503184518 | 16 | 259 | 0.0 | 0.0 | 0.00 | 0.00 | 0.00 | 73 | 1019.4 |
| 20260503183015 | 16 | 259 | 0.0 | 0.0 | 0.00 | 0.00 | 0.00 | 73 | 1019.5 |
| 20260503181506 | 17 | 259 | 0.0 | 0.0 | 0.00 | 0.00 | 0.00 | 72 | 1019.4 |
| 20260503180021 | 17 | 259 | 0.0 | 0.0 | 0.00 | 0.00 | 0.00 | 70 | 1019.4 |
| 20260503174518 | 17 | 259 | 0.0 | 0.0 | 0.00 | 0.00 | 0.00 | 69 | 1019.4 |
| 20260503173021 | 17 | 211 | 0.0 | 1.6 | 0.00 | 0.00 | 0.00 | 67 | 1019.5 |
| 20260503171508 | 18 | 119 | 0.0 | 0.0 | 0.00 | 0.00 | 0.00 | 66 | 1019.5 |
| 20260503081526 | 17 | 113 | 0.0 | 1.6 | 0.00 | 0.00 | 0.00 | 68 | 1022.0 |
| 20260503071532 | 16 | 88 | 1.6 | 4.8 | 0.00 | 0.00 | 0.00 | 70 | 1021.8 |
| 20260503054524 | 15 | 252 | 0.0 | 0.0 | 0.00 | 0.00 | 0.00 | 78 | 1021.5 |
| 20260503053004 | 14 | 252 | 0.0 | 0.0 | 0.00 | 0.00 | 0.00 | 82 | 1021.4 |
| 20260503051503 | 13 | 252 | 0.0 | 3.2 | 0.00 | 0.00 | 0.00 | 82 | 1021.3 |
| 20260503050003 | 13 | 252 | 1.6 | 4.8 | 0.00 | 0.00 | 0.00 | 81 | 1021.4 |
| 20260503044512 | 12 | 252 | 1.6 | 4.8 | 0.00 | 0.00 | 0.00 | 80 | 1021.4 |
| 20260503043010 | 12 | 252 | 3.2 | 4.8 | 0.00 | 0.00 | 0.00 | 79 | 1021.4 |
| 20260503041510 | 12 | 252 | 3.2 | 4.8 | 0.00 | 0.00 | 0.00 | 79 | 1021.3 |
| 20260503040005 | 12 | 252 | 3.2 | 4.8 | 0.00 | 0.00 | 0.00 | 77 | 1021.3 |
| 20260503034504 | 12 | 252 | 3.2 | 4.8 | 0.00 | 0.00 | 0.00 | 76 | 1021.3 |
| 20260503033006 | 12 | 252 | 3.2 | 4.8 | 0.00 | 0.00 | 0.00 | 74 | 1021.4 |
| 20260503031512 | 12 | 262 | 3.2 | 6.4 | 0.00 | 0.00 | 0.00 | 74 | 1021.4 |
| 20260503030019 | 12 | 250 | 3.2 | 6.4 | 0.00 | 0.00 | 0.00 | 73 | 1021.5 |
| 20260503024513 | 12 | 250 | 3.2 | 6.4 | 0.00 | 0.00 | 0.00 | 73 | 1021.5 |
| 20260503023003 | 12 | 257 | 3.2 | 6.4 | 0.00 | 0.00 | 0.00 | 72 | 1021.6 |
| 20260503021513 | 12 | 257 | 3.2 | 6.4 | 0.00 | 0.00 | 0.00 | 72 | 1021.6 |
| 20260503020006 | 12 | 225 | 4.8 | 6.4 | 0.00 | 0.00 | 0.00 | 72 | 1021.7 |
| 20260503014520 | 12 | 252 | 3.2 | 6.4 | 0.00 | 0.00 | 0.00 | 71 | 1021.6 |
| 20260503013022 | 12 | 250 | 3.2 | 6.4 | 0.00 | 0.00 | 0.00 | 71 | 1021.6 |
| 20260503011509 | 12 | 257 | 4.8 | 6.4 | 0.00 | 0.00 | 0.00 | 69 | 1021.7 |
| 20260503010009 | 12 | 248 | 3.2 | 6.4 | 0.00 | 0.00 | 0.00 | 69 | 1021.7 |
| 20260503004538 | 13 | 242 | 4.8 | 6.4 | 0.00 | 0.00 | 0.00 | 67 | 1021.8 |
| 20260503003025 | 13 | 242 | 3.2 | 6.4 | 0.00 | 0.00 | 0.00 | 67 | 1022.0 |
| 20260503001546 | 13 | 242 | 3.2 | 6.4 | 0.00 | 0.00 | 0.00 | 67 | 1022.1 |
| 20260503000010 | 13 | 244 | 3.2 | 6.4 | 0.00 | 0.00 | 0.00 | 67 | 1022.1 |
| 20260502234511 | 13 | 250 | 3.2 | 6.4 | 0.00 | 0.00 | 0.00 | 67 | 1022.2 |
| 20260502233026 | 13 | 251 | 3.2 | 6.4 | 0.00 | 0.00 | 0.00 | 67 | 1022.3 |
| 20260502231514 | 13 | 241 | 4.8 | 9.7 | 0.00 | 0.00 | 0.00 | 66 | 1022.5 |
| 20260502230011 | 13 | 244 | 3.2 | 6.4 | 0.00 | 0.00 | 0.00 | 66 | 1022.5 |
| 20260502224526 | 13 | 242 | 3.2 | 6.4 | 0.00 | 0.00 | 0.00 | 66 | 1022.5 |
| 20260502223017 | 13 | 251 | 3.2 | 6.4 | 0.00 | 0.00 | 0.00 | 66 | 1022.5 |
| 20260502221520 | 13 | 250 | 3.2 | 6.4 | 0.00 | 0.00 | 0.00 | 65 | 1022.6 |
| 20260502220029 | 13 | 252 | 3.2 | 6.4 | 0.00 | 0.00 | 0.00 | 65 | 1022.6 |
| 20260502214518 | 13 | 247 | 3.2 | 6.4 | 0.00 | 0.00 | 0.00 | 65 | 1022.6 |
| 20260502213021 | 14 | 240 | 3.2 | 6.4 | 0.00 | 0.00 | 0.00 | 64 | 1022.6 |
| 20260502211518 | 14 | 248 | 3.2 | 6.4 | 0.00 | 0.00 | 0.00 | 60 | 1022.7 |